Regional Weather Roundup
Issued by NWS Sioux Falls, SD

Home | Current Version | Previous Version | Graphics & Text | Print | Product List | Glossary On
Versions: 1 2 3 4 5 6 7 8 9 10 11 12 13 14 15 16 17 18 19 20 21 22 23 24 25 26 27 28 29 30 31 32 33 34 35 36 37 38 39 40 41 42 43 44 45 46 47 48 49 50
000
ASUS43 KFSD 291002
RWRFSD

WEATHER ROUNDUP FOR SE SOUTH DAKOTA/SW MINNESOTA/NW IOWA
NATIONAL WEATHER SERVICE SIOUX FALLS SD
500 AM CDT THU SEP 29 2016

NOTE: "FAIR" INDICATES FEW OR NO CLOUDS BELOW 12,000 FEET WITH NO
SIGNIFICANT WEATHER AND OR OBSTRUCTIONS TO VISIBILITY.


SDZ038>040-050-052>070-291100-
SOUTHEAST SOUTH DAKOTA

CITY           SKY/WX    TMP DP  RH WIND       PRES   REMARKS
CHAMBERLAIN    CLEAR     43  42  98 CALM      30.40R
HURON          CLOUDY    37  37 100 CALM      30.42R
MADISON        FAIR      41  41 100 NE3       30.43S
MITCHELL       CLOUDY    39  39 100 CALM      30.42S
SIOUX FALLS    CLOUDY    41  40  96 CALM      30.43R
WINNER         FAIR      46  41  82 S7        30.40R
YANKTON        CLOUDY    39  39 100 N3        30.41R
$$

MNZ071-072-080-081-089-090-097-098-291100-
SOUTHWEST MINNESOTA

CITY           SKY/WX    TMP DP  RH WIND       PRES   REMARKS
FAIRMONT       CLEAR     45  45 100 N6        30.41
JACKSON        CLEAR     43  41  93 CALM      30.41R
LUVERNE        CLOUDY    41  39  93 CALM      30.42S
MARSHALL       CLOUDY    38  36  92 W3        30.44R
MONTEVIDEO     CLEAR     43  41  93 SE3       30.45S
PIPESTONE      CLOUDY    45  43  93 NE3       30.42S
REDWOOD FALLS  CLEAR     49  45  86 N3        30.42R
TRACY          CLEAR     44  43  99 CALM      30.43R
WINDOM         CLEAR     45  45 100 N7        30.42R
WORTHINGTON    CLEAR     42  42 100 N8        30.42R
$$

IAZ001>003-012>014-020>022-031-032-NEZ013-014-SDZ071-291100-
NORTHWEST IOWA

CITY           SKY/WX    TMP DP  RH WIND       PRES   REMARKS
CHEROKEE       CLEAR     43  43 100 NE6       30.39S
DENISON        CLEAR     46  45  93 CALM      30.36R FOG
ESTHERVILLE    CLEAR     44  44 100 N7        30.40R
LE MARS        CLOUDY    43  43 100 NE5       30.41S
ORANGE CITY    CLOUDY    43  41  93 NW7       30.41R
SHELDON        CLEAR     41  41 100 N3        30.39R FOG
SIOUX CITY     CLEAR     45  43  93 NW7       30.40S
SPENCER        CLEAR     42  42 100 NW7       30.40R
STORM LAKE     CLEAR     48  48 100 NE12      30.38S
$$

ABBREVIATIONS USED IN REMARKS
   TC - TEMPERATURE IN CELSIUS
  WCI - WIND CHILL INDEX
   HX - HEAT INDEX
  VSB - VISIBILITY





USA.gov is the U.S. government's official web portal to all federal, state and local government web resources and services.